TimePST,TemperatureF,Dew PointF,Humidity,Sea Level PressureIn,VisibilityMPH,Wind Direction,Wind SpeedMPH,Gust SpeedMPH,PrecipitationIn,Events,Conditions,WindDirDegrees,DateUTC
12:53 AM,46.0,37.0,71,30.11,10.0,WSW,17.3,-,N/A,,Clear,250,2013-01-08 08:53:00
1:53 AM,45.0,36.0,71,30.12,10.0,WSW,17.3,-,N/A,,Clear,240,2013-01-08 09:53:00
2:53 AM,44.1,36.0,73,30.15,10.0,WNW,4.6,-,N/A,,Partly Cloudy,300,2013-01-08 10:53:00
3:53 AM,39.0,35.1,86,30.14,10.0,NE,4.6,-,N/A,,Mostly Cloudy,40,2013-01-08 11:53:00
4:53 AM,39.9,36.0,86,30.14,10.0,South,6.9,-,N/A,,Overcast,180,2013-01-08 12:53:00
5:53 AM,42.1,37.0,82,30.15,10.0,SSW,5.8,-,N/A,,Overcast,200,2013-01-08 13:53:00
6:53 AM,43.0,36.0,76,30.14,10.0,South,5.8,-,N/A,,Overcast,190,2013-01-08 14:53:00
7:53 AM,44.1,37.0,76,30.14,10.0,SSW,8.1,-,N/A,,Overcast,200,2013-01-08 15:53:00
8:53 AM,44.1,37.0,76,30.15,10.0,Variable,4.6,-,0.00,,Overcast,0,2013-01-08 16:53:00
9:53 AM,43.0,39.9,89,30.13,8.0,SSE,5.8,-,0.02,Rain,Light Rain,160,2013-01-08 17:53:00
10:53 AM,43.0,41.0,93,30.11,10.0,East,5.8,-,0.01,,Overcast,80,2013-01-08 18:53:00
11:53 AM,45.0,41.0,86,30.07,10.0,East,6.9,-,N/A,,Overcast,90,2013-01-08 19:53:00
12:53 PM,46.0,41.0,83,30.04,10.0,ESE,6.9,-,N/A,,Overcast,110,2013-01-08 20:53:00
1:53 PM,46.0,41.0,83,30.02,10.0,SE,10.4,-,N/A,,Overcast,130,2013-01-08 21:53:00
2:53 PM,48.0,41.0,77,30.01,10.0,SSE,9.2,-,N/A,,Overcast,160,2013-01-08 22:53:00
3:53 PM,50.0,41.0,71,30.00,10.0,SSW,11.5,-,N/A,,Mostly Cloudy,200,2013-01-08 23:53:00
4:53 PM,48.9,41.0,74,29.97,10.0,SSW,9.2,-,N/A,,Mostly Cloudy,200,2013-01-09 00:53:00
5:53 PM,48.0,39.9,74,29.95,10.0,Calm,Calm,-,N/A,,Partly Cloudy,0,2013-01-09 01:53:00
6:53 PM,48.0,39.9,74,29.93,10.0,South,6.9,-,N/A,,Partly Cloudy,190,2013-01-09 02:53:00
7:53 PM,50.0,39.9,68,29.93,10.0,SSW,17.3,-,N/A,,Scattered Clouds,210,2013-01-09 03:53:00
9:53 PM,48.0,39.0,71,29.92,10.0,South,9.2,-,N/A,,Clear,190,2013-01-09 05:53:00
10:53 PM,46.9,37.9,71,29.92,10.0,SW,3.5,-,N/A,,Clear,220,2013-01-09 06:53:00
11:53 PM,46.0,37.9,73,29.91,10.0,Calm,Calm,-,N/A,,Clear,0,2013-01-09 07:53:00